Regional Weather Roundup
Issued by NWS

Home | Current Version | Previous Version | Text Only | Print | Product List | Glossary Off
Versions: 1 2 3 4 5 6 7 8 9 10 11 12 13 14 15 16 17 18 19 20 21 22 23 24 25 26 27 28 29 30 31 32 33 34 35 36 37 38 39 40 41 42 43 44 45 46 47 48 49 50

000
ASUS43 KFSD 060602
RWRSD

WEATHER ROUNDUP FOR SOUTH DAKOTA
NATIONAL WEATHER SERVICE SIOUX FALLS SD
1200 AM CST FRI MAR 06 2015

NOTE: "FAIR" INDICATES FEW OR NO CLOUDS BELOW 12,000 FEET WITH NO
SIGNIFICANT WEATHER AND/OR OBSTRUCTIONS TO VISIBILITY.


SDZ001>005-009-010-012>017-060700-
NORTHWEST AND NORTH CENTRAL SOUTH DAKOTA

CITY           SKY/WX    TMP DP  RH WIND       PRES   REMARKS
BUFFALO          N/A     27  14  58 W10       30.01F WCI  17
FAITH            N/A     30  11  45 W7        30.08F WCI  23
MOBRIDGE       CLEAR     21  13  71 E5        30.05F WCI  15
$$

SDZ012>016-024>037-041>051-057-063-072>074-060700-
SOUTHWEST AND SOUTH CENTRAL SOUTH DAKOTA

CITY           SKY/WX    TMP DP  RH WIND       PRES   REMARKS
RAPID CTY ARPT PTCLDY    30  16  56 W3        30.12F
PIERRE         CLEAR     24  17  74 W7        30.11S WCI  16
CUSTER         PTCLDY    26  13  57 CALM      30.12S
ELLSWORTH AFB  PTCLDY    29  17  60 W7        30.10F WCI  22
PHILIP         CLEAR     26  16  65 W13       30.14S WCI  15
PINE RIDGE     PTCLDY    25  18  74 W3        30.18F
SPEARFISH      FAIR      36  16  44 W9        30.11S
WINNER         FAIR      30  18  60 W10       30.13F WCI  21
$$

SDZ004>011-016>023-039-040-060700-
NORTHEAST SOUTH DAKOTA

CITY           SKY/WX    TMP DP  RH WIND       PRES   REMARKS
ABERDEEN       CLEAR      9   4  80 S6        30.08F WCI  -1
WATERTOWN      CLEAR     13   4  67 S10       30.08F WCI   0
$$

SDZ017-020-022-023-036>040-048>070-060700-
SOUTHEAST SOUTH DAKOTA

CITY           SKY/WX    TMP DP  RH WIND       PRES   REMARKS
SIOUX FALLS    CLEAR     22   8  55 S14       30.15F WCI   9
HURON          CLEAR     20   7  57 S6        30.10F WCI  12
MITCHELL       CLEAR     22   9  57 S6        30.13F WCI  14
YANKTON        CLEAR     28   7  40 S6        30.18F WCI  22
$$

ABBREVIATIONS USED IN REMARKS
   TC - TEMPERATURE IN CELSIUS
  WCI - WIND CHILL INDEX
   HX - HEAT INDEX
  VSB - VISIBILITY



USA.gov is the U.S. government's official web portal to all federal, state and local government web resources and services.